Time,TemperatureF,DewpointF,PressureIn,WindDirection,WindDirectionDegrees,WindSpeedMPH,WindSpeedGustMPH,Humidity,HourlyPrecipIn,Conditions,Clouds,dailyrainin,SoftwareType,DateUTC
2013-03-14 00:00:00,22.5,19.5,29.92,WNW,293,8.0,8.0,88,0.00,,,0.00,Wunderground v.1.15,2013-03-14 04:00:00,
2013-03-14 00:30:00,21.7,18.2,29.92,WNW,301,11.0,21.0,86,0.00,,,0.00,Wunderground v.1.15,2013-03-14 04:30:00,
2013-03-14 01:00:00,20.8,16.2,29.92,WNW,293,13.0,13.0,82,0.00,,,0.00,Wunderground v.1.15,2013-03-14 05:00:00,
2013-03-14 01:30:00,19.7,14.5,29.93,WNW,303,11.0,11.0,80,0.00,,,0.00,Wunderground v.1.15,2013-03-14 05:30:00,
2013-03-14 02:00:00,19.1,13.9,29.93,West,267,11.0,11.0,80,0.00,,,0.00,Wunderground v.1.15,2013-03-14 06:00:00,
2013-03-14 02:30:00,18.8,14.5,29.94,NW,314,8.0,9.0,83,0.00,,,0.00,Wunderground v.1.15,2013-03-14 06:30:00,
2013-03-14 03:00:00,18.6,14.8,29.95,West,273,7.0,7.0,85,0.00,,,0.00,Wunderground v.1.15,2013-03-14 07:00:00,
2013-03-14 04:30:00,19.3,15.3,29.96,WNW,302,6.0,6.0,84,0.00,,,0.00,Wunderground v.1.15,2013-03-14 08:30:00,
2013-03-14 05:00:00,19.2,15.4,29.96,NW,309,7.0,7.0,85,0.00,,,0.00,Wunderground v.1.15,2013-03-14 09:00:00,
2013-03-14 05:30:00,19.4,15.6,29.97,WNW,296,7.0,7.0,85,0.00,,,0.00,Wunderground v.1.15,2013-03-14 09:30:00,
2013-03-14 06:00:00,19.4,15.9,29.98,WNW,296,8.0,8.0,86,0.00,,,0.00,Wunderground v.1.15,2013-03-14 10:00:00,
2013-03-14 06:30:00,19.5,15.7,29.99,West,269,9.0,9.0,85,0.00,,,0.00,Wunderground v.1.15,2013-03-14 10:30:00,
2013-03-14 07:00:00,19.8,15.7,29.99,West,277,8.0,12.0,84,0.00,,,0.00,Wunderground v.1.15,2013-03-14 11:00:00,
2013-03-14 07:30:00,20.2,15.3,29.99,WNW,298,9.0,9.0,81,0.00,,,0.00,Wunderground v.1.15,2013-03-14 11:30:00,
2013-03-14 08:00:00,20.4,14.9,30.00,West,267,10.0,11.0,79,0.00,,,0.00,Wunderground v.1.15,2013-03-14 12:00:00,
2013-03-14 08:30:00,20.6,14.2,30.02,WNW,298,9.0,9.0,76,0.00,,,0.00,Wunderground v.1.15,2013-03-14 12:30:00,
2013-03-14 09:00:00,21.2,14.2,30.03,NW,311,10.0,10.0,74,0.00,,,0.00,Wunderground v.1.15,2013-03-14 13:00:00,
2013-03-14 09:30:00,21.1,13.8,30.04,NW,309,10.0,20.0,73,0.00,,,0.00,Wunderground v.1.15,2013-03-14 13:30:00,
2013-03-14 10:00:00,21.8,13.8,30.03,WNW,298,9.0,9.0,71,0.00,,,0.00,Wunderground v.1.15,2013-03-14 14:00:00,
2013-03-14 10:30:00,22.9,13.6,30.03,West,273,9.0,12.0,67,0.00,,,0.00,Wunderground v.1.15,2013-03-14 14:30:00,
2013-03-14 11:00:00,23.2,13.2,30.03,WSW,252,12.0,13.0,65,0.00,,,0.00,Wunderground v.1.15,2013-03-14 15:00:00,
2013-03-14 11:30:00,24.0,14.3,30.02,WNW,302,11.0,14.0,66,0.00,,,0.00,Wunderground v.1.15,2013-03-14 15:30:00,
2013-03-14 12:00:00,25.1,13.5,30.02,NW,311,11.0,15.0,61,0.00,,,0.00,Wunderground v.1.15,2013-03-14 16:00:00,
2013-03-14 12:30:00,25.4,11.0,30.02,West,265,13.0,13.0,54,0.00,,,0.00,Wunderground v.1.15,2013-03-14 16:30:00,
2013-03-14 13:00:00,26.5,13.3,30.02,West,268,11.0,11.0,57,0.00,,,0.00,Wunderground v.1.15,2013-03-14 17:00:00,
2013-03-14 13:30:00,27.1,14.3,30.02,WNW,293,16.0,16.0,58,0.00,,,0.00,Wunderground v.1.15,2013-03-14 17:30:00,
2013-03-14 14:30:00,27.9,13.8,30.02,West,277,14.0,14.0,55,0.00,,,0.00,Wunderground v.1.15,2013-03-14 18:30:00,
2013-03-14 15:00:00,28.7,12.8,30.01,WSW,250,13.0,13.0,51,0.00,,,0.00,Wunderground v.1.15,2013-03-14 19:00:00,
2013-03-14 15:30:00,28.5,13.1,30.01,West,279,16.0,16.0,52,0.00,,,0.00,Wunderground v.1.15,2013-03-14 19:30:00,
2013-03-14 16:00:00,28.6,12.3,30.00,NW,310,13.0,13.0,50,0.00,,,0.00,Wunderground v.1.15,2013-03-14 20:00:00,
2013-03-14 16:30:00,29.1,12.3,30.01,West,263,13.0,13.0,49,0.00,,,0.00,Wunderground v.1.15,2013-03-14 20:30:00,
2013-03-14 17:00:00,29.2,15.0,30.01,West,267,15.0,15.0,55,0.00,,,0.00,Wunderground v.1.15,2013-03-14 21:00:00,
2013-03-14 22:00:00,26.0,17.6,30.05,WNW,290,6.0,14.0,70,0.00,,,0.00,Wunderground v.1.15,2013-03-15 02:00:00,
2013-03-14 22:30:00,25.7,16.9,30.04,West,273,8.0,11.0,69,0.00,,,0.00,Wunderground v.1.15,2013-03-15 02:30:00,
2013-03-14 23:00:00,25.3,16.5,30.04,West,269,9.0,9.0,69,0.00,,,0.00,Wunderground v.1.15,2013-03-15 03:00:00,
2013-03-14 23:30:00,25.0,15.2,30.03,WSW,245,9.0,9.0,66,0.00,,,0.00,Wunderground v.1.15,2013-03-15 03:30:00,